Flag for U.S.A. Weather past 2 weeks in Hudson, Wisconsin, U.S.A.

Now
58 °F

Clear.


Feels Like: 58 °F
Forecast: 55 / 80 °F
Wind: No wind

Location: St. Paul Downtown Holman Field

Current Time: Jul 3, 2015 at 6:05:17 AM

Latest Report: Jul 3, 2015 at 4:53 AM


Visibility: 10 mi

Pressure: 29.97 "Hg

Humidity: 93%

Dew point: 56 °F

Location of HudsonLocation

Historic Weather in Hudson — Graph

°F

Hudson temperature yesterday

Maximum temperature yesterday: 76 °F (at 2:53 PM)
Minimum temperature yesterday: 55 °F (at 4:53 AM)
Average temperature yesterday: 67 °F

Past Weeks' High & Low Weather Summary

 TemperatureHumidityPressure
High84 °F (Jun 21, 3:53 PM)100% (Jun 22, 8:59 AM)30.11 "Hg (Jun 22, 8:59 AM)
Low55 °F (Jul 2, 4:53 AM)36% (Jun 21, 4:53 PM)29.47 "Hg (Jun 22, 9:53 AM)
Average70 °F70%29.93 "Hg
* Reported Jun 18 4:53 AM — Jul 3 4:53 AM, Hudson, Weather by CustomWeather, © 2015

Note: Actual official high and low records may vary slightly from our data, if they occured in-between our weather recording intervals... More about our weather records

Advertising

Hudson weather history for previous 24 hours

 ConditionsComfort  
Time TempWeatherWind HumidityBarometerVisibility
4:53 AM
Fri, Jul 3
58 °FClear.No wind93%29.97 "Hg10 mi
3:53 AM59 °FClear.No wind93%29.97 "Hg10 mi
2:53 AM60 °FClear.No wind93%29.96 "Hg10 mi
1:53 AM62 °FClear.3 mph86%29.96 "Hg10 mi
12:53 AM63 °FClear.No wind81%29.97 "Hg10 mi
11:53 PM
Thu, Jul 2
65 °FClear.No wind78%29.97 "Hg10 mi
10:53 PM66 °FClear.No wind75%29.97 "Hg10 mi
9:53 PM68 °FSunny.5 mph70%29.97 "Hg10 mi
8:53 PM70 °FSunny.3 mph59%29.96 "Hg10 mi
7:53 PM71 °FSunny.6 mph59%29.95 "Hg10 mi
6:53 PM75 °FSunny.5 mph54%29.96 "Hg10 mi
5:53 PM75 °FSunny.5 mph54%29.97 "Hg10 mi
4:53 PM75 °FPassing clouds.8 mph54%29.98 "Hg10 mi
3:53 PM76 °FSunny.7 mph48%29.99 "Hg10 mi
2:53 PM76 °FSunny.No wind43%30.00 "Hg10 mi
1:53 PM75 °FSunny.8 mph48%29.99 "Hg10 mi
12:53 PM75 °FSunny.9 mph50%30.01 "Hg10 mi
11:53 AM72 °FSunny.3 mph52%30.02 "Hg10 mi
10:53 AM71 °FSunny.3 mph53%30.02 "Hg10 mi
9:53 AM69 °FSunny.5 mph63%30.03 "Hg10 mi
8:53 AM65 °FSunny.No wind73%30.03 "Hg10 mi
7:53 AM62 °FSunny.No wind83%30.03 "Hg10 mi
6:53 AM57 °FSunny.No wind93%30.03 "Hg8 mi
Weather by CustomWeather, © 2015

See weather overviewHow to use our weather pages